Quillayute, WA

5:43 PM PDT on October 17, 2017 (GMT -0700)
Quillayute

Weather History for KUIL - November, 2014

Change the Weather History Date:

Wednesday, November 19, 2014

  Actual Average Record
Temperature  
Mean Temperature 48 °F 44 °F  
Max Temperature 58 °F 50 °F 66 °F (1987)
Min Temperature 37 °F 38 °F 25 °F (2011)
Degree Days  
Heating Degree Days 17 21  
Month to date heating degree days 377 376  
Since 1 July heating degree days 1026 1466  
Cooling Degree Days 0 0  
Month to date cooling degree days 0 0  
Year to date cooling degree days 25 19  
Moisture  
Dew Point 37 °F    
Average Humidity 66    
Maximum Humidity 85    
Minimum Humidity 47    
Precipitation  
Precipitation T in 0.55 in 5.28 in (1991)
Month to date precipitation 6.85 9.71  
Year to date precipitation 84.61 80.74  
Sea Level Pressure  
Sea Level Pressure 29.85 in    
Wind  
Wind Speed 4 mph (East)    
Max Wind Speed 16 mph    
Max Gust Speed 25 mph    
Visibility 7 miles    
Events Rain    
T = Trace of Precipitation, MM = Missing Value Source: NWS Daily Summary

Daily Weather History Graph

Daily Weather History Graph

Search for Another Location

Airport or City:

Trip Planner

Search our weather history database for the weather conditions in past years. The results will help you decide how hot, cold, wet, or windy it might be!

Date:

Astronomy

Nov. 19, 2014 Rise Set
Actual Time 7:30 AM PST 4:36 PM PST
Civil Twilight 6:56 AM PST 5:10 PM PST
Nautical Twilight 6:18 AM PST 5:48 PM PST
Astronomical Twilight 5:41 AM PST 6:25 PM PST
Moon 4:18 AM PST (11/19) 3:19 PM PST (11/19)
Length of Visible Light 10h 14m
Length of Day
9h 05m
Waning Crescent, 8% of the Moon is Illuminated
Nov 19
Waning Crescent
Nov 22
New
Nov 29
First Quarter
Dec 6
Full
Dec 14
Last Quarter

Hourly Weather History & Observations

Time (PST) Temp. Windchill Dew Point Humidity Pressure Visibility Wind Dir Wind Speed Gust Speed Precip Events Conditions
12:53 AM 39.9 °F 37.8 °F 35.1 °F 83% 30.01 in 7.0 mi East 3.5 mph - N/A   Clear
1:53 AM 39.0 °F 35.7 °F 35.1 °F 86% 30.00 in 7.0 mi ENE 4.6 mph - N/A   Clear
2:53 AM 39.9 °F 37.8 °F 34.0 °F 79% 29.99 in 7.0 mi East 3.5 mph - N/A   Clear
3:53 AM 39.0 °F 36.8 °F 35.1 °F 86% 29.97 in 7.0 mi East 3.5 mph - N/A   Clear
4:53 AM 42.1 °F 40.2 °F 35.1 °F 76% 29.96 in 8.0 mi East 3.5 mph - N/A   Overcast
5:53 AM 44.1 °F 42.5 °F 34.0 °F 68% 29.94 in 8.0 mi East 3.5 mph - N/A   Mostly Cloudy
6:53 AM 45.0 °F 43.5 °F 33.1 °F 63% 29.92 in 8.0 mi East 3.5 mph - N/A   Scattered Clouds
7:53 AM 44.1 °F 42.5 °F 33.1 °F 65% 29.91 in 7.0 mi SE 3.5 mph - N/A   Clear
8:53 AM 43.0 °F - 34.0 °F 71% 29.89 in 6.0 mi Calm Calm - N/A   Haze
9:53 AM 48.9 °F - 35.1 °F 59% 29.88 in 7.0 mi Calm Calm - N/A   Clear
10:53 AM 54.0 °F - 35.1 °F 49% 29.86 in 7.0 mi East 6.9 mph - N/A   Overcast
11:53 AM 54.0 °F - 37.0 °F 53% 29.83 in 7.0 mi ESE 3.5 mph - N/A   Clear
12:53 PM 57.0 °F - 37.0 °F 47% 29.80 in 7.0 mi ENE 5.8 mph - N/A   Partly Cloudy
1:53 PM 57.0 °F - 37.9 °F 49% 29.78 in 7.0 mi East 4.6 mph - N/A   Clear
2:53 PM 55.9 °F - 39.9 °F 55% 29.78 in 6.0 mi Calm Calm - N/A   Haze
3:53 PM 53.1 °F - 44.1 °F 71% 29.78 in 5.0 mi Calm Calm - N/A   Haze
4:53 PM 48.9 °F - 39.0 °F 69% 29.77 in 7.0 mi ENE 6.9 mph - N/A   Clear
5:53 PM 48.0 °F - 37.0 °F 66% 29.77 in 8.0 mi East 5.8 mph - N/A   Partly Cloudy
6:53 PM 45.0 °F - 39.9 °F 82% 29.77 in 7.0 mi Calm Calm - N/A   Mostly Cloudy
7:53 PM 46.0 °F 43.1 °F 35.1 °F 66% 29.77 in 7.0 mi East 5.8 mph - N/A   Clear
8:53 PM 46.9 °F - 36.0 °F 66% 29.77 in 7.0 mi East 5.8 mph - N/A   Partly Cloudy
9:53 PM 45.0 °F 42.6 °F 37.0 °F 74% 29.76 in 7.0 mi East 4.6 mph - N/A   Partly Cloudy
10:53 PM 50.0 °F - 35.1 °F 57% 29.75 in 8.0 mi Calm Calm - N/A   Overcast
11:24 PM 52.0 °F - 41.0 °F 66% 29.76 in 5.0 mi SSE 11.5 mph 25.3 mph 0.00 in Rain Light Rain
11:53 PM 50.0 °F - 46.0 °F 86% 29.77 in 6.0 mi SE 11.5 mph 18.4 mph 0.00 in Rain Light Rain